Total_Precipitation_Accumulation
1.53 1.58 1.61 1.54 1.59 1.70 1.84 1.94 1.95 1.86 1.79 1.71 1.42 1.26 1.21 1.23 1.35 1.36 1.48 1.30 0.91 0.73 0.66 0.65 0.66 0.72 0.80 0.93 1.08 1.24 1.37 1.51 1.65 1.84 2.08 2.29 2.47 2.66
1.83 1.91 1.84 1.70 1.76 1.79 1.84 2.00 2.15 2.17 1.98 1.73 1.52 1.37 1.30 1.17 1.23 1.17 1.24 1.11 0.82 0.69 0.62 0.59 0.56 0.57 0.63 0.69 0.77 0.90 1.02 1.20 1.39 1.52 1.66 1.79 1.94 2.08
1.84 1.79 1.75 1.79 1.83 1.73 1.77 1.86 2.02 2.18 2.02 1.82 1.69 1.62 1.58 1.49 1.35 1.13 0.96 0.87 0.77 0.75 0.64 0.57 0.56 0.56 0.57 0.59 0.64 0.71 0.81 0.97 1.14 1.26 1.39 1.57 1.70 1.81
1.86 1.78 1.68 1.73 1.78 1.73 1.79 1.77 1.83 2.07 2.03 1.94 1.88 1.88 1.80 1.62 1.51 1.35 1.08 0.94 0.90 0.87 0.74 0.62 0.55 0.55 0.55 0.54 0.59 0.63 0.71 0.81 0.95 1.06 1.13 1.18 1.34 1.54
1.94 1.82 1.71 1.72 1.70 1.77 1.84 1.81 1.77 1.82 1.96 1.93 1.90 1.98 1.93 1.73 1.57 1.42 1.27 1.30 1.15 0.95 0.78 0.67 0.60 0.57 0.55 0.53 0.58 0.67 0.79 0.81 0.83 0.93 1.04 1.11 1.16 1.23
1.72 1.62 1.61 1.69 1.74 1.73 1.66 1.65 1.68 1.78 1.84 1.86 1.88 1.98 2.02 1.93 1.74 1.59 1.55 1.50 1.37 1.03 0.91 0.78 0.70 0.61 0.55 0.49 0.50 0.63 0.78 0.84 0.90 0.92 0.95 1.02 1.08 1.12
1.57 1.36 1.30 1.50 1.62 1.64 1.52 1.58 1.63 1.68 1.70 1.77 1.82 1.93 2.00 2.12 1.94 1.69 1.62 1.67 1.59 1.42 1.29 1.07 0.93 0.82 0.76 0.69 0.60 0.60 0.64 0.73 0.83 0.97 1.10 1.20 1.25 1.26
1.40 1.30 1.26 1.29 1.29 1.27 1.25 1.26 1.33 1.43 1.60 1.81 1.90 1.93 1.92 2.02 2.09 2.00 1.91 1.85 1.80 1.74 1.80 1.68 1.38 1.27 1.17 1.07 0.91 0.69 0.57 0.63 0.76 0.86 1.08 1.34 1.57 1.66
1.37 1.39 1.19 1.07 1.18 1.17 1.22 1.16 1.10 1.14 1.26 1.50 1.70 1.76 1.87 1.89 2.12 2.15 2.17 2.24 2.20 2.15 2.17 2.16 1.83 1.56 1.35 1.26 1.14 0.85 0.70 0.64 0.70 0.81 0.91 1.11 1.39 1.71
1.37 1.40 1.38 1.32 1.29 1.35 1.36 1.29 1.17 1.13 1.10 1.09 1.29 1.56 1.78 2.00 2.06 2.12 2.22 2.28 2.26 2.11 2.08 2.13 1.97 1.83 1.54 1.25 1.11 0.97 0.81 0.71 0.68 0.74 0.75 0.79 0.93 1.15
1.47 1.46 1.44 1.39 1.38 1.25 1.22 1.25 1.25 1.22 1.05 1.05 1.12 1.32 1.49 1.56 1.75 1.97 2.12 2.05 1.95 1.72 1.56 1.65 1.69 1.73 1.72 1.53 1.20 1.08 0.92 0.77 0.72 0.72 0.71 0.70 0.75 0.81
1.56 1.53 1.42 1.29 1.24 1.11 1.10 1.24 1.23 1.20 1.20 1.13 1.03 1.05 1.13 1.24 1.29 1.34 1.59 1.76 1.66 1.57 1.35 1.28 1.26 1.37 1.50 1.38 1.18 1.13 1.12 1.00 0.84 0.79 0.77 0.75 0.80 0.75
1.59 1.55 1.49 1.35 1.15 1.08 1.02 1.06 1.10 1.09 1.15 1.18 1.14 1.08 1.14 1.22 1.17 1.12 1.24 1.42 1.47 1.32 1.19 1.26 1.20 1.11 1.10 1.09 1.03 0.92 0.95 1.05 1.02 0.91 0.85 0.84 0.89 0.92
1.76 1.71 1.61 1.39 1.15 1.05 0.96 0.93 0.88 0.83 0.87 1.00 1.03 0.99 1.02 1.13 1.19 1.15 1.18 1.22 1.27 1.19 1.16 1.25 1.31 1.23 1.07 0.92 0.85 0.76 0.75 0.83 0.98 1.15 1.23 1.26 1.15 1.11
1.70 1.71 1.44 1.21 1.06 0.91 0.87 0.85 0.76 0.71 0.82 0.89 0.89 0.88 0.87 0.97 1.16 1.28 1.31 1.30 1.25 1.08 0.96 0.99 1.11 1.25 1.24 1.02 0.83 0.74 0.72 0.79 0.91 1.11 1.24 1.35 1.42 1.42
1.44 1.50 1.36 1.18 1.05 0.94 0.88 0.84 0.79 0.80 0.88 0.90 0.91 0.94 0.95 1.01 1.09 1.17 1.26 1.29 1.25 1.05 0.94 0.94 1.00 1.17 1.21 1.05 0.91 0.83 0.81 0.87 0.93 1.13 1.34 1.43 1.46 1.54
1.44 1.46 1.46 1.33 1.20 1.09 1.06 1.09 1.09 1.04 0.97 0.97 1.00 1.01 0.99 0.98 1.03 1.10 1.17 1.20 1.14 0.95 0.82 0.88 0.99 1.14 1.16 1.13 1.04 0.88 0.84 0.83 0.85 1.00 1.23 1.32 1.39 1.47
1.28 1.31 1.42 1.40 1.32 1.24 1.18 1.18 1.16 1.11 1.04 1.04 1.02 1.00 0.98 0.95 0.97 1.02 1.06 1.07 1.04 0.95 0.85 0.81 0.94 1.10 1.16 1.05 0.89 0.82 0.79 0.75 0.81 0.96 1.07 1.08 1.02 1.08
1.09 1.15 1.25 1.29 1.25 1.22 1.16 1.13 1.09 1.10 1.11 1.06 1.03 1.03 1.01 0.96 0.94 0.96 0.99 1.04 1.03 1.01 0.98 0.97 0.97 0.97 0.95 0.82 0.71 0.64 0.73 0.74 0.82 0.88 0.97 0.94 0.86 0.88
0.95 1.02 1.08 1.12 1.13 1.14 1.13 1.11 1.08 1.09 1.08 1.06 1.02 1.01 1.01 0.96 0.96 0.97 0.94 0.96 1.02 1.04 1.06 0.99 0.95 0.89 0.84 0.84 0.82 0.74 0.65 0.80 0.88 0.85 0.83 0.86 0.84 0.79
0.88 0.92 0.93 0.94 0.98 1.02 1.02 1.06 1.06 1.02 1.02 1.05 1.02 0.98 1.00 1.01 1.01 1.00 1.00 1.01 1.01 1.05 1.02 0.89 0.84 0.96 1.08 1.11 0.98 0.84 0.83 0.81 0.92 0.94 0.92 0.95 0.93 0.89
0.83 0.86 0.82 0.81 0.86 0.93 0.98 1.03 1.03 1.04 1.07 1.04 1.01 1.00 0.99 0.99 0.97 0.97 1.01 1.03 1.03 1.03 1.01 1.02 1.07 1.13 1.15 1.06 0.93 0.95 1.04 0.99 0.97 0.97 0.94 0.96 0.93 0.84
0.78 0.74 0.70 0.72 0.78 0.83 0.88 0.91 0.96 1.03 1.02 1.01 1.05 1.01 0.97 0.98 0.96 0.97 0.96 0.98 1.00 1.05 1.12 1.16 1.14 1.09 1.06 1.07 1.01 0.96 0.97 1.03 1.07 1.05 0.96 0.88 0.81 0.72